Regional Weather Roundup
Issued by NWS Sterling, VA

Home | Current Version | Previous Version | Text Only | Print | Product List | Glossary Off
Versions: 1 2 3 4 5 6 7 8 9 10 11 12 13 14 15 16 17 18 19 20 21 22 23 24 25 26 27 28 29 30 31 32 33 34 35 36 37 38 39 40 41 42 43 44 45 46 47 48 49 50

000
ASUS41 KLWX 031210
RWRLWX

REGIONAL WEATHER ROUNDUP
NATIONAL WEATHER SERVICE BALTIMORE MD/WASHINGTON DC
700 AM EST TUE MAR 03 2015

Note: "FAIR" indicates few or no clouds below 12,000 feet
with no significant weather and/or obstructions to visibility.
 TC=TEMPERATURE CELSIUS

 * =Non NWS site. Station does not report precipitation (e.g. rain,
    snow, etc.), thunder, or fog.

DCZ001-MDZ009-015-VAZ040>042-051-053>054-031300-
WASHINGTON METRO

CITY           SKY/WX    TMP DP  RH WIND       PRES   REMARKS
WASHINGTON NAT CLOUDY    31  16  54 NE3       30.44F
DULLES         CLOUDY    26  15  63 CALM      30.41F
ANDREWS AFB    CLOUDY    26  16  65 NE3       30.41F
FT BELVOIR     MOCLDY    24  20  82 CALM      30.44S
QUANTICO       MOCLDY    27  19  72 CALM      30.45S
COLLEGE PARK*  CLOUDY    27  23  86 CALM      30.43F
LEESBURG*      CLOUDY    28  19  69 CALM      30.41S
GAITHERSBURG*  CLOUDY    25  16  68 CALM      30.44S

$$

MDZ006>007-011-014-031300-
BALTIMORE METRO

CITY           SKY/WX    TMP DP  RH WIND       PRES   REMARKS
BWI AIRPORT    CLOUDY    28  12  51 NE9       30.43S WCI  19
MD SCIENCE CTR   N/A      1  52 100 MISG      30.43F
MARTIN STATE   CLOUDY    28  18  64 CALM      30.46S
ANNAPOLIS      CLOUDY    29  16  58 NE6       30.44R
FORT MEADE*    CLOUDY    25  21  86 CALM      30.45S

$$

MDZ012-015-019>023-031300-
MARYLAND EASTERN SHORE

CITY           SKY/WX    TMP DP  RH WIND       PRES   REMARKS
OCEAN CITY     MOCLDY    29  19  66 NE7       30.42S
SALISBURY      MOCLDY    30  17  58 NE8       30.43R WCI  22
BAY BRIDGE AP*   N/A     30  18  59 NE6       30.45R
CAMBRIDGE*     CLOUDY    32  21  64 N3        30.43S
EASTON*        CLEAR     28  19  69 NE12      30.46S WCI  18

$$

MDZ017>025-031300-
SOUTHERN MARYLAND

CITY           SKY/WX    TMP DP  RH WIND       PRES   REMARKS
PATUXENT RIVER CLOUDY    30  18  60 N6        30.44R
ST INIGOES     NOT AVBL
LEONARDTOWN*   MOCLDY    28  19  69 CALM      30.45R

$$

MDZ003>005-031300-
NORTH CENTRAL MARYLAND

CITY           SKY/WX    TMP DP  RH WIND       PRES   REMARKS
FREDERICK*     CLEAR     27  18  69 CALM      30.45S
HAGERSTOWN APT CLOUDY    26  16  65 NE3       30.39R
WESTMINSTER*   CLOUDY    25  12  58 E5        30.39R

$$

MDZ501>502-031300-
WESTERN MARYLAND

CITY           SKY/WX    TMP DP  RH WIND       PRES   REMARKS
OAKLAND*       CLOUDY    19  18  93 SE16G24   30.17R WCI   5
CUMBERLAND*    NOT AVBL

$$

VAZ025>031-031300-
SHENANDOAH VALLEY

CITY           SKY/WX    TMP DP  RH WIND       PRES   REMARKS
WINCHESTER*    CLOUDY    28  14  54 CALM      30.37F
FRONT ROYAL*   FAIR      27  18  69 CALM      30.36S
LURAY*         CLOUDY    30  21  69 CALM      30.36R
NEW MARKET*    CLOUDY    27  17  66 CALM      30.36R
STAUNTON*      MOCLDY    27  20  74 S5        30.36S
WAYNESBORO*    FAIR      28  15  56 SE7       30.34R

$$

WVZ021-048>050-054>055-031300-
EASTERN WEST VIRGINIA PANHANDLE

CITY           SKY/WX    TMP DP  RH WIND       PRES   REMARKS
MARTINSBURG    CLOUDY    27  16  63 CALM      30.38F
PETERSBURG*    NOT AVBL

$$

VAZ036>039-050-031300-
CENTRAL FOOTHILLS

CITY           SKY/WX    TMP DP  RH WIND       PRES   REMARKS
CHARLOTTESVILL MOCLDY    30  15  53 CALM      30.42R
CULPEPER*      PTCLDY    25  21  86 CALM      30.42S
ORANGE*        PTCLDY    27  23  86 CALM      30.44R
GORDONSVILLE*  FAIR      23  20  86 CALM      30.43R
WARRENTON*     FAIR      24  23  97 CALM      30.42R

$$

VAZ055>057-031300-
NORTH AND CENTRAL PIEDMONT

CITY           SKY/WX    TMP DP  RH WIND       PRES   REMARKS
FREDERICKSBRG* MOCLDY    27  23  82 CALM      30.44S
STAFFORD*      MOCLDY    24  18  77 CALM      30.48R

$$

NCZ024-NYZ072-PAZ021-071-VAZ022-071-031300-
OTHER REGIONAL OBSERVATIONS

CITY           SKY/WX    TMP DP  RH WIND       PRES   REMARKS
NEW YORK CITY  CLEAR     24   8  50 NW6       30.45R
PHILADELPHIA   CLOUDY    26  10  50 N7        30.47R
PITTSBURGH     CLOUDY    22  14  71 E5        30.23F
ROANOKE        CLOUDY    33  18  53 SE9       30.38R WCI  25
RICHMOND       CLOUDY    30  17  58 CALM      30.43R
RALEIGH        CLOUDY    38  22  52 E6G17     30.38S

$$

ANZ530>537-031300-
MARINE OBSERVATIONS

STATION/POSITION TIME  TEMP    WIND        PRES
                       AIR SEA DIR/SP/G
                 (UTC) (F)     (DEG/KT/KT) (MB)
THOMAS PT LIGHT  1200   29 32   40/ 11/ 12 1031.7R
BALT KEY BRIDGE  1112   28                 1030.9R
COVE POINT       1112   29                 1030.5R
LEWISETTA        1112   31 33              1030.4R
SOLOMONS ISLAND  1112      33                N/A

$$




USA.gov is the U.S. government's official web portal to all federal, state and local government web resources and services.